STARLINK-33583 (63503 NORAD) Tracking and Keplerian Element Data

This shows tracking and keplerian element data for the satellite.

Feedback or suggestion? Click here.




ElementValue
Catalog63503
NameSTARLINK-33583
Epoch Orbit4056
Epoch Day354.14601629
Epoch Year2025
RAAN152.0739
Inclination53.1566
Eccentricity0.0001773
Argument of Perigee89.1966
Mean Anonmoly270.9238
Mean Motion15.30220727
Decay Rate0.00015672
L11 63503U 25071L 25354.14601629 .00015672 00000+0 53981-3 0 9999
L22 63503 53.1566 152.0739 0001773 89.1966 270.9238 15.30220727 40564



Live tracking and technical data element details for STARLINK-33583 (NORAD 63503). STARLINK-33583 can be tracked NOW for your location showing map with azimuth and elevation plus other details from your city location.







IsCatalogInMostPopularTable: catalog: 63503, numindb: 2
Update: records affected: 1



GetName: 63503 STARLINK-33583

Hit Count: updated at: Sat, 07 Feb 2026 08:01:32 GMT